Skip Page Navigation
NASA JPL Caltech
NASA Logo - Jet Propulsion Laboratory + View the NASA Portal
+ Near-Earth Object (NEO) Program
Search JPL
JPL Home Earth Solar System Stars & Galaxies Technology
JPL Solar System Dynamics
BODIES ORBITS EPHEMERIDES TOOLS PHYSICAL DATA DISCOVERY FAQ SITE MAP
JPL Small-Body Database Browser
Search: [ help ]  
214195 (2005 EW29)
Classification: Main-belt Asteroid          SPK-ID: 2214195
Ephemeris | Orbit Diagram | Orbital Elements | Physical Parameters | Discovery Circumstances ]

[ hide orbit diagram ]
Orbit Diagram
Note: Make sure you have Java enabled on your browser to see the applet. This applet is provided as a 3D orbit visualization tool. The applet was implemented using 2-body methods, and hence should not be used for determining accurate long-term trajectories (over several years or decades) or planetary encounter circumstances. For accurate long-term ephemerides, please instead use our Horizons system.
Orbit Viewer

Additional Notes: the orbits shown in the applet are color coded. The planets are white lines, and the asteroid/comet is a blue line. The bright white line indicates the portion of the orbit that is above the ecliptic plane, and the darker portion is below the ecliptic plane. Likewise for the asteroid/comet orbit, the light blue indicates the portion above the ecliptic plane, and the dark blue the portion below the ecliptic plane.

Orbit Viewer applet originally written and kindly provided by Osamu Ajiki (AstroArts), and further modified by Ron Baalke (JPL).


Orbital Elements at Epoch 2456400.5 (2013-Apr-18.0) TDB
Reference: MPO217699 (heliocentric ecliptic J2000)
 Element Value Uncertainty (1-sigma)   Units 
e 0.0875605 n/a  
a 2.3908487 n/a AU
q 2.1815048 n/a AU
i 6.95419 n/a deg
node 121.82744 n/a deg
peri 22.13794 n/a deg
M 78.97164 n/a deg
tp 2456104.2930617
(2012-Jun-25.79306170)
n/a JED
period 1350.2885060
3.70
n/a
n/a
d
yr
n 0.26660969 n/a deg/d
Q 2.6001926 n/a AU
  Orbit Determination Parameters
   # obs. used (total)      62  
   first obs. used      1996-??-??  
   last obs. used      2011-12-27  
   # oppositions      5  
   planetary ephem.      DE403  
   condition code      1  
   fit RMS      0.52  
   data source      MPC:mpu  
   producer      MPCLINUX  

Additional Information
 T_jup = 3.517 

Ephemeris | Orbit Diagram | Orbital Elements | Physical Parameters | Discovery Circumstances ]

Physical Parameter Table
Parameter Symbol Value Units Sigma Reference Notes
absolute magnitude H 17.9 mag n/a MPO217699  

214195 (2005 EW29)          Discovered 2005-Mar-02 by Calvin College at Calvin-Rehoboth (G98)
Reference: 20090509/Numbers.arcLast Updated: 2009-05-11

Alternate Designations
 2005 EW29 = 1996 VQ33 
Ephemeris | Orbit Diagram | Orbital Elements | Physical Parameters | Discovery Circumstances ]
ABOUT SSD CREDITS/AWARDS PRIVACY/COPYRIGHT GLOSSARY LINKS
FirstGov 2013-May-25 05:17 UT
(server date/time)  
NASA Home Page
Site Manager:   Donald K. Yeomans
Webmaster  Alan B. Chamberlin